Date String (YYYY-MM-DD hh:mm:ss) UTC,Instrument flags,absolute air pressure of the measurement (hPa),sample flow rate (lpm),inlet stack bypass flow (lpm),air temperature of the measurement (°C),ambient temperature measured by the external sensor (°C),aerosol sample conditioner tube jacket temperature (°C),OPC LED temperature (°C),internal box temperature (°C),relative humidity of the measurement (%),span deviation,mass concentration of particles derived from Lorenz-Mie calculation of OPC scattering (μg/m³),mass concentration of particles derived from Lorenz-Mie calculation of OPC scattering (μg/m³),mass concentration of particles derived from Lorenz-Mie calculation of OPC scattering (μg/m³)
DateTimeUTC,F1_M11,P_M11,Q1_M11,Q2_M11,T1_M11,T2_M11,T3_M11,T4_M11,T5_M11,U1_M11,ZSPAN_M11,X0_M11,X2_M11,X1_M11
2023-08-28 12:00:00,SystemResetWarning,0835.8,5.00,000.00,029.1,027.2,000.0,037.5,030.2,33.4,0000.0,0011.32,0004.72,0004.00
2023-08-28 12:01:00,SystemResetWarning,0835.8,4.99,000.00,029.1,027.3,000.0,037.5,030.3,33.4,0000.0,0011.57,0004.75,0004.01
2023-08-28 12:02:00,SystemResetWarning,0835.8,5.00,000.00,029.1,027.3,000.0,037.5,030.3,33.4,-000.4,0011.65,0004.79,0004.01
2023-08-28 12:03:00,SystemResetWarning,0835.8,5.00,000.00,029.2,027.4,000.0,037.6,030.3,33.4,-001.3,0011.14,0004.78,0004.03
2023-08-28 12:04:00,SystemResetWarning,0835.8,5.01,000.00,029.2,027.5,000.0,037.6,030.4,33.5,-001.4,0011.17,0004.78,0004.04
2023-08-28 12:05:00,SystemResetWarning,0835.8,5.00,000.00,029.2,027.5,000.0,037.6,030.4,33.5,-001.1,0011.18,0004.78,0004.04
2023-08-28 12:06:00,SystemResetWarning,0835.8,4.99,000.00,029.2,027.6,000.0,037.6,030.4,33.6,-000.7,0010.90,0004.77,0004.05
2023-08-28 12:07:00,SystemResetWarning,0835.8,4.98,000.00,029.2,027.6,000.0,037.6,030.4,33.6,-000.5,0010.87,0004.76,0004.06
2023-08-28 12:08:00,SystemResetWarning,0835.8,5.01,000.00,029.2,027.6,000.0,037.7,030.5,33.6,-000.2,0010.87,0004.75,0004.07
2023-08-28 12:09:00,SystemResetWarning,0835.8,5.00,000.00,029.2,027.7,000.0,037.7,030.5,33.6,0000.2,0010.83,0004.72,0004.06
2023-08-28 12:10:00,SystemResetWarning,0835.9,5.01,000.00,029.2,027.7,000.0,037.7,030.5,33.6,-000.3,0010.45,0004.71,0004.08
2023-08-28 12:11:00,SystemResetWarning,0835.9,5.00,000.00,029.3,027.7,000.0,037.7,030.5,33.6,-000.4,0010.05,0004.70,0004.08
2023-08-28 12:12:00,SystemResetWarning,0835.9,5.00,000.00,029.3,027.5,000.0,037.7,030.5,33.6,-000.3,0010.08,0004.67,0004.08
2023-08-28 12:13:00,SystemResetWarning,0835.9,4.98,000.00,029.2,025.8,000.0,037.6,030.3,33.6,-000.4,0009.78,0004.67,0004.10
2023-08-28 12:14:00,SystemResetWarning,0835.9,5.01,000.00,029.1,024.5,000.0,037.4,030.0,33.7,-000.1,0009.76,0004.65,0004.11
2023-08-28 12:15:00,SystemResetWarning,0835.9,5.02,000.00,029.0,024.4,000.0,037.4,029.7,34.0,0000.0,0009.79,0004.67,0004.12
2023-08-28 12:16:00,SystemResetWarning,0835.9,5.00,000.00,028.8,024.7,000.0,037.4,029.6,34.2,-000.1,0009.71,0004.69,0004.14
2023-08-28 12:17:00,SystemResetWarning,0835.9,4.99,000.00,028.8,025.1,000.0,037.4,029.7,34.4,-000.4,0009.72,0004.70,0004.15
2023-08-28 12:18:00,SystemResetWarning,0835.9,5.01,000.00,028.7,025.5,000.0,037.4,029.8,34.5,-000.7,0009.76,0004.72,0004.15
2023-08-28 12:19:00,SystemResetWarning,0835.9,5.00,000.00,028.7,025.8,000.0,037.4,029.9,34.5,-000.3,0009.92,0004.72,0004.15
2023-08-28 12:20:00,SystemResetWarning,0835.9,5.00,000.00,028.7,026.1,000.0,037.4,030.0,34.4,0000.0,0009.28,0004.72,0004.16
2023-08-28 12:21:00,SystemResetWarning,0835.9,5.00,000.00,028.7,026.4,000.0,037.4,030.0,34.4,0000.0,0009.50,0004.76,0004.17
2023-08-28 12:22:00,SystemResetWarning,0835.9,5.00,000.00,028.7,026.6,000.0,037.4,030.1,34.4,-000.4,0009.59,0004.80,0004.18
2023-08-28 12:23:00,SystemResetWarning,0835.9,5.00,000.00,028.7,026.8,000.0,037.4,030.1,34.4,-001.0,0009.58,0004.80,0004.18
2023-08-28 12:24:00,SystemResetWarning,0835.9,5.00,000.00,028.7,026.9,000.0,037.4,030.1,34.4,-000.9,0009.25,0004.85,0004.17
2023-08-28 12:25:00,SystemResetWarning,0835.9,4.99,000.00,028.7,027.0,000.0,037.4,030.1,34.3,-001.2,0009.10,0004.86,0004.16
2023-08-28 12:26:00,SystemResetWarning,0836.1,5.00,000.00,028.8,027.1,000.0,037.4,030.2,34.2,-001.5,0009.02,0004.90,0004.16
2023-08-28 12:27:00,SystemResetWarning,0836.1,5.00,000.00,028.8,027.2,000.0,037.4,030.2,34.1,-001.5,0009.22,0004.97,0004.14
2023-08-28 12:28:00,SystemResetWarning,0836.1,5.00,000.00,028.8,027.3,000.0,037.4,030.2,34.1,-001.3,0009.36,0005.01,0004.14
2023-08-28 12:29:00,SystemResetWarning,0836.1,5.00,000.00,028.8,027.3,000.0,037.4,030.2,34.0,-001.3,0009.49,0005.03,0004.13
2023-08-28 12:30:00,SystemResetWarning,0836.1,5.00,000.00,028.8,027.4,000.0,037.4,030.3,33.9,-001.4,0010.18,0005.07,0004.13
2023-08-28 12:31:00,SystemResetWarning,0836.1,5.00,000.00,028.8,027.4,000.0,037.4,030.3,33.9,-001.7,0010.13,0005.10,0004.11
2023-08-28 12:32:00,SystemResetWarning,0836.1,5.00,000.00,028.8,027.4,000.0,037.4,030.3,33.9,-001.9,0010.08,0005.10,0004.10
2023-08-28 12:33:00,SystemResetWarning,0836.1,5.00,000.00,028.9,027.5,000.0,037.4,030.3,34.0,-002.1,0010.14,0005.11,0004.10
2023-08-28 12:34:00,SystemResetWarning,0836.1,5.00,000.00,028.9,027.5,000.0,037.4,030.3,34.2,-001.6,0010.27,0005.12,0004.10
2023-08-28 12:35:00,SystemResetWarning,0836.1,5.00,000.00,028.9,027.5,000.0,037.4,030.4,34.4,0000.0,0010.46,0005.16,0004.11
2023-08-28 12:36:00,SystemResetWarning,0836.1,5.01,000.00,028.9,027.6,000.0,037.4,030.4,34.5,0000.0,0010.42,0005.13,0004.10
2023-08-28 12:37:00,SystemResetWarning,0836.1,5.01,000.00,028.9,027.6,000.0,037.5,030.4,34.6,0000.0,0010.49,0005.11,0004.11
2023-08-28 12:38:00,SystemResetWarning,0836.1,5.00,000.00,028.9,027.6,000.0,037.5,030.4,34.6,0000.0,0010.58,0005.08,0004.13
2023-08-28 12:39:00,SystemResetWarning,0836.2,4.99,000.00,028.9,027.6,000.0,037.5,030.4,34.6,0000.0,0010.31,0005.00,0004.13
2023-08-28 12:40:00,SystemResetWarning,0836.2,5.00,000.00,028.9,027.6,000.0,037.5,030.4,34.6,0000.0,0010.22,0004.99,0004.14
2023-08-28 12:41:00,SystemResetWarning,0836.2,5.00,000.00,029.0,027.6,000.0,037.5,030.4,34.6,0000.0,0009.46,0004.96,0004.15
2023-08-28 12:42:00,SystemResetWarning,0836.2,5.00,000.00,029.0,027.6,000.0,037.5,030.5,34.6,0000.0,0009.72,0004.93,0004.17
2023-08-28 12:43:00,SystemResetWarning,0836.2,5.00,000.00,029.0,027.7,000.0,037.5,030.5,34.5,0000.0,0009.85,0004.92,0004.18
2023-08-28 12:44:00,SystemResetWarning,0836.3,5.00,000.00,029.0,027.7,000.0,037.5,030.5,34.4,0000.0,0009.73,0004.87,0004.19
2023-08-28 12:45:00,SystemResetWarning,0836.3,5.00,000.00,029.0,026.8,000.0,037.5,030.4,34.4,0000.0,0009.61,0004.85,0004.20
2023-08-28 12:46:00,SystemResetWarning,0836.3,5.01,000.00,028.9,025.1,000.0,037.3,030.2,34.4,0000.0,0009.32,0004.77,0004.20
2023-08-28 12:47:00,SystemResetWarning,0836.3,5.00,000.00,028.8,024.5,000.0,037.2,029.9,34.6,0000.0,0009.17,0004.77,0004.22
2023-08-28 12:48:00,SystemResetWarning,0836.3,5.00,000.00,028.7,024.6,000.0,037.2,029.6,35.0,0000.0,0009.08,0004.78,0004.22
2023-08-28 12:49:00,SystemResetWarning,0836.3,5.02,000.00,028.7,025.0,000.0,037.3,029.7,35.2,0000.0,0008.91,0004.78,0004.22
2023-08-28 12:50:00,SystemResetWarning,0836.3,5.00,000.00,028.9,025.4,000.0,037.3,029.9,34.8,0000.0,0008.92,0004.76,0004.21
2023-08-28 12:51:00,SystemResetWarning,0836.4,4.98,000.00,029.1,025.8,000.0,037.3,030.1,34.5,0000.0,0008.82,0004.74,0004.20
2023-08-28 12:52:00,SystemResetWarning,0836.4,5.02,000.00,029.2,026.1,000.0,037.3,030.1,34.3,0000.0,0008.67,0004.69,0004.19
2023-08-28 12:53:00,SystemResetWarning,0836.4,4.99,000.00,029.3,026.3,000.0,037.3,030.1,34.2,0000.0,0008.29,0004.68,0004.19
2023-08-28 12:54:00,SystemResetWarning,0836.4,5.00,000.00,029.3,026.6,000.0,037.4,030.2,34.0,0000.0,0007.91,0004.69,0004.20
2023-08-28 12:55:00,SystemResetWarning,0836.5,5.00,000.00,029.3,026.7,000.0,037.4,030.2,33.9,0000.0,0007.69,0004.65,0004.18
2023-08-28 12:56:00,SystemResetWarning,0836.5,5.01,000.00,029.3,026.9,000.0,037.5,030.2,33.9,0000.0,0007.56,0004.62,0004.17
2023-08-28 12:57:00,SystemResetWarning,0836.5,5.00,000.00,029.4,027.0,000.0,037.5,030.2,33.9,0000.0,0007.54,0004.61,0004.17
2023-08-28 12:58:00,SystemResetWarning,0836.5,5.01,000.00,029.4,027.1,000.0,037.6,030.3,33.9,0000.0,0007.58,0004.59,0004.16
2023-08-28 12:59:00,SystemResetWarning,0836.5,5.01,000.00,029.4,027.2,000.0,037.6,030.3,33.9,0000.0,0007.81,0004.58,0004.15
